#timestamp,LO_Frequency,Hit,StdDev 
1610676015.4,286046998.6,N
1610676035.3,286046998.7,N
1610676055.1,286047001.4,N
1610676075.9,286047001.5,N
1610676095.7,286047000.9,N
1610676115.5,286046998.4,N
1610676135.4,286046998.8,N
1610676155.2,286046999.2,N
1610676175.0,286046999.4,N
1610676176.0,286046999.4,N
1610676195.8,286046997.1,N
1610676215.6,286046999.0,N
1610676235.5,286046998.7,N
1610676255.3,286046998.9,N
1610676275.1,286047000.3,N
1610676295.9,286046999.8,N
1610676315.7,286047000.9,N
1610676335.6,286047000.8,N
1610676355.4,286047000.7,N
1610676375.2,286047001.2,N
1610676395.1,286047000.2,N
1610676396.0,286047000.2,N
1610676415.8,286047000.8,N
1610676435.7,286046998.7,N
1610676455.5,286047000.3,N
1610676475.3,286047002.4,N
1610676495.2,286047000.0,N
1610676515.0,286047002.4,N
1610676515.9,286047002.4,N
1610676535.7,286047002.4,N
1610676555.6,286047000.7,N
1610676575.4,286047002.3,N
1610676595.3,286047002.5,N
1610676615.1,286047001.6,N
1610676616.0,286047001.6,N
1610676635.8,286047001.0,N
1610676655.7,286047000.2,N
1610676675.5,286047000.2,N
1610676695.4,286047002.8,N
1610676715.2,286047000.5,N
1610676735.0,286046999.7,N
1610676735.9,286046999.7,N
1610676755.8,286047002.3,N
1610676775.6,286047000.0,N
1610676795.4,286046999.8,N
1610676815.3,286046998.1,N
1610676835.1,286046998.8,N
1610676855.9,286047001.2,N
1610676875.7,286046998.4,N
1610676895.5,286046999.5,N
1610676915.4,286046999.6,N
1610676935.2,286046996.9,N
1610676955.1,286046997.4,N
1610676956.0,286046997.4,N
1610676975.8,286046998.4,N
1610676995.6,286046996.6,N
1610677015.5,286046997.2,N
1610677035.3,286046996.8,N
1610677055.1,286046997.0,N
1610677075.9,286046997.0,N
1610677095.7,286046998.7,N
1610677115.6,286046999.3,N
1610677135.4,286046998.0,N
1610677155.2,286046997.9,N
1610677175.1,286046996.9,N
1610677176.0,286046996.9,N
1610677225.8,286046995.5,E
1610677235.8,286046996.6,N
1610677255.6,286047000.8,P
1610677275.4,286047000.9,N
1610677295.3,286047000.0,N
1610677315.1,286047000.5,N
1610677335.9,286046999.7,N
1610677355.7,286047000.2,N
1610677375.5,286047000.1,N
1610677395.4,286047000.6,N
1610677415.2,286046998.6,N
1610677435.0,286046998.7,N
1610677436.0,286046998.7,N
1610677455.8,286046997.4,N
1610677475.6,286046998.7,N
1610677495.5,286046999.4,N
1610677515.3,286047001.1,N
1610677535.1,286046998.1,N
1610677555.9,286047000.4,N
1610677575.7,286046999.9,N
1610677595.6,286047002.4,N
1610677615.4,286047002.2,N
1610677635.2,286047002.3,N
1610677655.1,286047002.7,N
1610677656.0,286047002.7,N
1610677675.8,286047002.5,N
1610677695.7,286047002.5,N
1610677715.5,286047001.5,N
1610677735.3,286047002.1,N
1610677755.2,286047001.8,N
1610677775.0,286047002.5,N
1610677775.9,286047002.5,N
1610677795.8,286047001.7,N
1610677815.6,286047001.9,N
1610677835.4,286047001.3,N
1610677855.3,286047001.4,N
1610677875.1,286047004.2,N
1610677895.8,286047002.0,N
1610677915.7,286047000.5,N
1610677935.5,286047000.6,N
1610677955.4,286047000.8,N
1610677975.2,286046998.7,N
1610677995.0,286046998.1,N
1610677995.9,286046998.1,N
1610678015.8,286046998.5,N
1610678035.6,286046998.8,N
1610678055.5,286046999.2,N
1610678075.3,286046998.1,N
1610678095.1,286047001.2,N
1610678115.9,286047000.6,N
1610678135.7,286046998.5,N
1610678155.5,286046999.5,N
1610678175.4,286046999.6,N
1610678195.2,286046997.1,N
1610678215.1,286046997.4,N
1610678216.0,286046997.4,N
1610678235.8,286046997.4,N
1610678255.6,286046996.6,N
1610678275.5,286046996.5,N
1610678295.3,286046997.0,N
1610678315.2,286046996.7,N
1610678335.9,286046997.5,N
1610678355.7,286046995.4,N
1610678375.6,286046995.1,N
1610678395.4,286046997.2,N
1610678415.2,286046995.2,N
1610678435.1,286046995.9,N
1610678436.0,286046995.9,N
1610678455.8,286046995.6,N
1610678475.7,286046996.2,N
1610678495.5,286046995.4,N
1610678515.3,286046995.7,N
1610678535.2,286046997.6,N
1610678555.0,286046996.7,N
1610678555.9,286046996.7,N
1610678575.8,286046996.5,N
1610678595.6,286046997.0,N
1610678615.4,286046998.6,N
1610678635.3,286046996.9,N
1610678655.1,286046997.5,N
1610678675.8,286046995.5,Y
1610678695.7,286046998.5,P
1610678715.5,286047000.5,N
1610678735.4,286047000.5,N
1610678755.2,286047000.8,N
1610678775.0,286046996.5,N
1610678775.9,286046996.5,N
1610678795.8,286046998.7,N
1610678815.6,286047000.6,N
1610678835.5,286047000.1,N
1610678855.3,286047000.1,N
1610678875.1,286047000.2,N
1610678895.9,286046999.7,N
1610678915.7,286047000.4,N
1610678935.5,286047001.0,N
1610678955.4,286047000.4,N
1610678975.2,286047000.5,N
1610678995.1,286047000.2,N
1610678996.0,286047000.2,N
1610679015.8,286046999.8,N
1610679035.6,286047002.6,N
1610679055.5,286047001.6,N
1610679075.3,286047000.9,N
1610679095.2,286046999.3,N
1610679115.9,286046999.5,N
1610679135.7,286046999.3,N
1610679155.6,286046999.5,N
1610679175.4,286046999.2,N
1610679195.2,286046997.2,N
1610679215.1,286046997.8,N
1610679216.0,286046997.8,N
1610679235.8,286046999.4,N
1610679255.7,286047000.7,N
1610679275.5,286047000.1,N
1610679295.3,286047000.2,N
1610679315.2,286047002.1,N
1610679335.0,286047001.6,N
1610679335.9,286047001.6,N
1610679355.7,286046999.8,N
1610679375.6,286047000.2,N
1610679395.4,286047002.1,N
1610679415.3,286047004.2,Y
1610679435.1,286047001.6,P
1610679455.8,286047002.1,N
1610679475.7,286047002.4,N
1610679495.5,286047002.0,N
1610679515.4,286047001.5,N
1610679535.2,286047001.4,N
1610679555.0,286047001.8,N
1610679555.9,286047001.8,N
1610679575.8,286047004.3,Y
1610679595.6,286047000.7,P
